This demonstration page uses our WeatherBlox Daily Observations layout. Learn more.

Left ArrowRight Arrow

Hourly Observations for August 7, 2020

Temp ( °F °C ) Dew Point ( °F °C ) Humidity (%) Winds ( mph kmh ) Pressure ( in mb ) Visibility ( mi km ) Precip ( " mm )
12:52 am 00:52 Clear 72 22.2 65 18.3 79 79 SSE 10 17 30.00 1016 10 16 0.00 0.00
1:52 am 01:52 Clear 72 22.2 65 18.3 79 79 SSE 12 19 30.00 1016 10 16 0.00 0.00
2:52 am 02:52 Clear 71 21.7 65 18.3 81 81 SSE 10 17 30.01 1016 10 16 0.00 0.00
3:52 am 03:52 Mostly Cloudy 70 21.1 65 18.3 84 84 SSE 12 19 30.01 1016 10 16 0.00 0.00
4:52 am 04:52 Cloudy 70 21.1 64 17.8 82 82 SE 13 20 30.02 1017 10 16 0.00 0.00
5:52 am 05:52 Partly Cloudy 69 20.6 64 17.8 84 84 SSE 14 22 30.03 1017 10 16 0.00 0.00
6:52 am 06:52 Cloudy 69 20.6 64 17.8 84 84 SSE 12 19 30.03 1017 10 16 0.00 0.00
7:52 am 07:52 Partly Cloudy 70 21.1 64 17.8 82 82 S 14 22 30.05 1018 10 16 0.00 0.00
8:52 am 08:52 Cloudy with Light Rain 71 21.7 67 19.4 87 87 SSE 16 26 30.07 1018 10 16 0.00 0.00
9:52 am 09:52 Cloudy 70 21.1 67 19.4 90 90 SSE 13 20 30.09 1019 10 16 0.00 0.00
10:52 am 10:52 Sunny 72 22.2 68 20 87 87 SSE 6 9 30.10 1019 10 16 0.00 0.00
11:52 am 11:52 Cloudy with Light Rain 73 22.8 69 20.6 87 87 S 10 17 30.09 1019 10 16 0.00 0.00
12:40 pm 12:40 Mostly Cloudy 77 25 71 21.7 82 82 SSE 10 17 30.07 1018 10 16 0.00 0.00
12:52 pm 12:52 Cloudy 78 25.6 71 21.7 79 79 S 13 20 30.09 1019 10 16 0.00 0.00
1:18 pm 13:18 Mostly Sunny 80 26.7 72 22.2 76 76 S 13 20 30.04 1017 10 16 0.00 0.00
1:52 pm 13:52 Mostly Sunny 82 27.8 71 21.7 69 69 S 16 26 30.05 1018 10 16 0.00 0.00
2:50 pm 14:50 Mostly Cloudy 82 28 70 21 66 66 SSW 12 19 30.01 1016 10 16 0.00 0.00
2:52 pm 14:52 Mostly Cloudy 82 27.8 70 21.1 67 67 SSW 12 19 30.04 1017 10 16 0.00 0.00
3:06 pm 15:06 Partly Cloudy 83 28.3 70 21.1 65 65 S 14 22 30.01 1016 10 16 0.00 0.00
3:52 pm 15:52 Mostly Cloudy 85 29.4 71 21.7 63 63 S 14 22 30.04 1017 10 16 0.00 0.00
4:52 pm 16:52 Sunny 85 29.4 68 20 57 57 S 8 13 30.02 1017 10 16 0.00 0.00
5:52 pm 17:52 Sunny 83 28.3 70 21.1 65 65 SSE 8 13 30.01 1016 10 16 0.00 0.00
6:52 pm 18:52 Sunny 83 28.3 70 21.1 65 65 SSE 8 13 30.01 1016 10 16 0.00 0.00
7:52 pm 19:52 Sunny 80 26.7 69 20.6 69 69 S 6 9 30.02 1017 10 16 0.00 0.00
8:52 pm 20:52 Clear 78 25.6 70 21.1 76 76 SSE 9 15 30.02 1017 10 16 0.00 0.00
9:52 pm 21:52 Clear 77 25 70 21.1 79 79 SSE 13 20 30.04 1017 10 16 0.00 0.00
10:52 pm 22:52 Clear 76 24.4 69 20.6 79 79 S 12 19 30.04 1017 10 16 0.00 0.00
11:52 pm 23:52 Clear 75 23.9 68 20 79 79 SSE 13 20 30.04 1017 10 16 0.00 0.00

Powered by AerisWeather